Index of /20260509/WXO-DD/model_rdps/10km/06/015
Name Last modified Size Description
Parent Directory -
20260509T06Z_MSC_RDPS_AbsoluteVorticity_IsbL-0250_RLatLon0.09_PT015H.grib2 2026-05-09 08:47 610K
20260509T06Z_MSC_RDPS_AbsoluteVorticity_IsbL-0500_RLatLon0.09_PT015H.grib2 2026-05-09 08:47 567K
20260509T06Z_MSC_RDPS_AbsoluteVorticity_IsbL-0700_RLatLon0.09_PT015H.grib2 2026-05-09 08:47 641K
20260509T06Z_MSC_RDPS_AbsoluteVorticity_IsbL-0850_RLatLon0.09_PT015H.grib2 2026-05-09 08:47 796K
20260509T06Z_MSC_RDPS_AirTemp_AGL-120m_RLatLon0.09_PT015H.grib2 2026-05-09 08:47 376K
20260509T06Z_MSC_RDPS_AirTemp_AGL-2m_RLatLon0.09_PT015H.grib2 2026-05-09 08:47 627K
20260509T06Z_MSC_RDPS_AirTemp_AGL-40m_RLatLon0.09_PT015H.grib2 2026-05-09 08:47 383K
20260509T06Z_MSC_RDPS_AirTemp_AGL-80m_RLatLon0.09_PT015H.grib2 2026-05-09 08:47 379K
20260509T06Z_MSC_RDPS_AirTemp_IsbL-0001_RLatLon0.09_PT015H.grib2 2026-05-09 08:47 321K
20260509T06Z_MSC_RDPS_AirTemp_IsbL-0005_RLatLon0.09_PT015H.grib2 2026-05-09 08:47 375K
20260509T06Z_MSC_RDPS_AirTemp_IsbL-0010_RLatLon0.09_PT015H.grib2 2026-05-09 08:47 389K
20260509T06Z_MSC_RDPS_AirTemp_IsbL-0020_RLatLon0.09_PT015H.grib2 2026-05-09 08:47 313K
20260509T06Z_MSC_RDPS_AirTemp_IsbL-0030_RLatLon0.09_PT015H.grib2 2026-05-09 08:47 331K
20260509T06Z_MSC_RDPS_AirTemp_IsbL-0050_RLatLon0.09_PT015H.grib2 2026-05-09 08:47 304K
20260509T06Z_MSC_RDPS_AirTemp_IsbL-0100_RLatLon0.09_PT015H.grib2 2026-05-09 08:47 424K
20260509T06Z_MSC_RDPS_AirTemp_IsbL-0150_RLatLon0.09_PT015H.grib2 2026-05-09 08:47 414K
20260509T06Z_MSC_RDPS_AirTemp_IsbL-0175_RLatLon0.09_PT015H.grib2 2026-05-09 08:47 410K
20260509T06Z_MSC_RDPS_AirTemp_IsbL-0200_RLatLon0.09_PT015H.grib2 2026-05-09 08:47 415K
20260509T06Z_MSC_RDPS_AirTemp_IsbL-0225_RLatLon0.09_PT015H.grib2 2026-05-09 08:47 415K
20260509T06Z_MSC_RDPS_AirTemp_IsbL-0250_RLatLon0.09_PT015H.grib2 2026-05-09 08:47 424K
20260509T06Z_MSC_RDPS_AirTemp_IsbL-0275_RLatLon0.09_PT015H.grib2 2026-05-09 08:47 406K
20260509T06Z_MSC_RDPS_AirTemp_IsbL-0300_RLatLon0.09_PT015H.grib2 2026-05-09 08:47 436K
20260509T06Z_MSC_RDPS_AirTemp_IsbL-0350_RLatLon0.09_PT015H.grib2 2026-05-09 08:47 423K
20260509T06Z_MSC_RDPS_AirTemp_IsbL-0400_RLatLon0.09_PT015H.grib2 2026-05-09 08:47 425K
20260509T06Z_MSC_RDPS_AirTemp_IsbL-0450_RLatLon0.09_PT015H.grib2 2026-05-09 08:47 436K
20260509T06Z_MSC_RDPS_AirTemp_IsbL-0500_RLatLon0.09_PT015H.grib2 2026-05-09 08:47 450K
20260509T06Z_MSC_RDPS_AirTemp_IsbL-0550_RLatLon0.09_PT015H.grib2 2026-05-09 08:47 470K
20260509T06Z_MSC_RDPS_AirTemp_IsbL-0600_RLatLon0.09_PT015H.grib2 2026-05-09 08:47 491K
20260509T06Z_MSC_RDPS_AirTemp_IsbL-0650_RLatLon0.09_PT015H.grib2 2026-05-09 08:47 510K
20260509T06Z_MSC_RDPS_AirTemp_IsbL-0700_RLatLon0.09_PT015H.grib2 2026-05-09 08:47 540K
20260509T06Z_MSC_RDPS_AirTemp_IsbL-0750_RLatLon0.09_PT015H.grib2 2026-05-09 08:47 545K
20260509T06Z_MSC_RDPS_AirTemp_IsbL-0800_RLatLon0.09_PT015H.grib2 2026-05-09 08:47 470K
20260509T06Z_MSC_RDPS_AirTemp_IsbL-0850_RLatLon0.09_PT015H.grib2 2026-05-09 08:47 508K
20260509T06Z_MSC_RDPS_AirTemp_IsbL-0875_RLatLon0.09_PT015H.grib2 2026-05-09 08:47 525K
20260509T06Z_MSC_RDPS_AirTemp_IsbL-0900_RLatLon0.09_PT015H.grib2 2026-05-09 08:47 531K
20260509T06Z_MSC_RDPS_AirTemp_IsbL-0925_RLatLon0.09_PT015H.grib2 2026-05-09 08:47 533K
20260509T06Z_MSC_RDPS_AirTemp_IsbL-0950_RLatLon0.09_PT015H.grib2 2026-05-09 08:47 533K
20260509T06Z_MSC_RDPS_AirTemp_IsbL-0970_RLatLon0.09_PT015H.grib2 2026-05-09 08:47 526K
20260509T06Z_MSC_RDPS_AirTemp_IsbL-0985_RLatLon0.09_PT015H.grib2 2026-05-09 08:47 522K
20260509T06Z_MSC_RDPS_AirTemp_IsbL-1000_RLatLon0.09_PT015H.grib2 2026-05-09 08:47 512K
20260509T06Z_MSC_RDPS_AirTemp_IsbL-1015_RLatLon0.09_PT015H.grib2 2026-05-09 08:47 511K
20260509T06Z_MSC_RDPS_Albedo_Sfc_RLatLon0.09_PT015H.grib2 2026-05-09 08:47 162K
20260509T06Z_MSC_RDPS_CAPE_Sfc_RLatLon0.09_PT015H.grib2 2026-05-09 08:47 1.8M
20260509T06Z_MSC_RDPS_CIN_Sfc_RLatLon0.09_PT015H.grib2 2026-05-09 08:47 1.4M
20260509T06Z_MSC_RDPS_CloudWater_EAtm_RLatLon0.09_PT015H.grib2 2026-05-09 08:47 229K
20260509T06Z_MSC_RDPS_ConvectivePrecip-Accum_Sfc_RLatLon0.09_PT015H.grib2 2026-05-09 08:47 759K
20260509T06Z_MSC_RDPS_DewPointDepression_AGL-2m_RLatLon0.09_PT015H.grib2 2026-05-09 08:47 418K
20260509T06Z_MSC_RDPS_DewPointDepression_IsbL-0001_RLatLon0.09_PT015H.grib2 2026-05-09 08:47 193
20260509T06Z_MSC_RDPS_DewPointDepression_IsbL-0005_RLatLon0.09_PT015H.grib2 2026-05-09 08:47 193
20260509T06Z_MSC_RDPS_DewPointDepression_IsbL-0010_RLatLon0.09_PT015H.grib2 2026-05-09 08:47 193
20260509T06Z_MSC_RDPS_DewPointDepression_IsbL-0020_RLatLon0.09_PT015H.grib2 2026-05-09 08:47 193
20260509T06Z_MSC_RDPS_DewPointDepression_IsbL-0030_RLatLon0.09_PT015H.grib2 2026-05-09 08:47 193
20260509T06Z_MSC_RDPS_DewPointDepression_IsbL-0050_RLatLon0.09_PT015H.grib2 2026-05-09 08:47 80K
20260509T06Z_MSC_RDPS_DewPointDepression_IsbL-0100_RLatLon0.09_PT015H.grib2 2026-05-09 08:47 113K
20260509T06Z_MSC_RDPS_DewPointDepression_IsbL-0150_RLatLon0.09_PT015H.grib2 2026-05-09 08:47 152K
20260509T06Z_MSC_RDPS_DewPointDepression_IsbL-0175_RLatLon0.09_PT015H.grib2 2026-05-09 08:47 180K
20260509T06Z_MSC_RDPS_DewPointDepression_IsbL-0200_RLatLon0.09_PT015H.grib2 2026-05-09 08:47 223K
20260509T06Z_MSC_RDPS_DewPointDepression_IsbL-0225_RLatLon0.09_PT015H.grib2 2026-05-09 08:47 271K
20260509T06Z_MSC_RDPS_DewPointDepression_IsbL-0250_RLatLon0.09_PT015H.grib2 2026-05-09 08:47 311K
20260509T06Z_MSC_RDPS_DewPointDepression_IsbL-0275_RLatLon0.09_PT015H.grib2 2026-05-09 08:47 314K
20260509T06Z_MSC_RDPS_DewPointDepression_IsbL-0300_RLatLon0.09_PT015H.grib2 2026-05-09 08:47 323K
20260509T06Z_MSC_RDPS_DewPointDepression_IsbL-0350_RLatLon0.09_PT015H.grib2 2026-05-09 08:47 323K
20260509T06Z_MSC_RDPS_DewPointDepression_IsbL-0400_RLatLon0.09_PT015H.grib2 2026-05-09 08:47 331K
20260509T06Z_MSC_RDPS_DewPointDepression_IsbL-0450_RLatLon0.09_PT015H.grib2 2026-05-09 08:47 336K
20260509T06Z_MSC_RDPS_DewPointDepression_IsbL-0500_RLatLon0.09_PT015H.grib2 2026-05-09 08:47 343K
20260509T06Z_MSC_RDPS_DewPointDepression_IsbL-0550_RLatLon0.09_PT015H.grib2 2026-05-09 08:47 357K
20260509T06Z_MSC_RDPS_DewPointDepression_IsbL-0600_RLatLon0.09_PT015H.grib2 2026-05-09 08:47 372K
20260509T06Z_MSC_RDPS_DewPointDepression_IsbL-0650_RLatLon0.09_PT015H.grib2 2026-05-09 08:47 386K
20260509T06Z_MSC_RDPS_DewPointDepression_IsbL-0700_RLatLon0.09_PT015H.grib2 2026-05-09 08:47 403K
20260509T06Z_MSC_RDPS_DewPointDepression_IsbL-0750_RLatLon0.09_PT015H.grib2 2026-05-09 08:47 428K
20260509T06Z_MSC_RDPS_DewPointDepression_IsbL-0800_RLatLon0.09_PT015H.grib2 2026-05-09 08:47 462K
20260509T06Z_MSC_RDPS_DewPointDepression_IsbL-0850_RLatLon0.09_PT015H.grib2 2026-05-09 08:47 477K
20260509T06Z_MSC_RDPS_DewPointDepression_IsbL-0875_RLatLon0.09_PT015H.grib2 2026-05-09 08:47 473K
20260509T06Z_MSC_RDPS_DewPointDepression_IsbL-0900_RLatLon0.09_PT015H.grib2 2026-05-09 08:47 463K
20260509T06Z_MSC_RDPS_DewPointDepression_IsbL-0925_RLatLon0.09_PT015H.grib2 2026-05-09 08:47 451K
20260509T06Z_MSC_RDPS_DewPointDepression_IsbL-0950_RLatLon0.09_PT015H.grib2 2026-05-09 08:47 439K
20260509T06Z_MSC_RDPS_DewPointDepression_IsbL-0970_RLatLon0.09_PT015H.grib2 2026-05-09 08:47 432K
20260509T06Z_MSC_RDPS_DewPointDepression_IsbL-0985_RLatLon0.09_PT015H.grib2 2026-05-09 08:47 426K
20260509T06Z_MSC_RDPS_DewPointDepression_IsbL-1000_RLatLon0.09_PT015H.grib2 2026-05-09 08:47 422K
20260509T06Z_MSC_RDPS_DewPointDepression_IsbL-1015_RLatLon0.09_PT015H.grib2 2026-05-09 08:47 413K
20260509T06Z_MSC_RDPS_DewPoint_AGL-2m_RLatLon0.09_PT015H.grib2 2026-05-09 08:47 396K
20260509T06Z_MSC_RDPS_DownwardLongwaveRadiationFlux-Accum_Sfc_RLatLon0.09_PT015H.grib2 2026-05-09 08:47 506K
20260509T06Z_MSC_RDPS_DownwardShortwaveRadiationFlux-Accum_NTAtm_RLatLon0.09_PT015H.grib2 2026-05-09 08:47 120K
20260509T06Z_MSC_RDPS_DownwardShortwaveRadiationFlux-Accum_Sfc_RLatLon0.09_PT015H.grib2 2026-05-09 08:47 587K
20260509T06Z_MSC_RDPS_FreezingRain-Accum1h_Sfc_RLatLon0.09_PT015H.grib2 2026-05-09 08:47 15K
20260509T06Z_MSC_RDPS_FreezingRain-Accum3h_Sfc_RLatLon0.09_PT015H.grib2 2026-05-09 08:47 18K
20260509T06Z_MSC_RDPS_FreezingRain-Accum_Sfc_RLatLon0.09_PT015H.grib2 2026-05-09 08:47 82K
20260509T06Z_MSC_RDPS_GeopotentialHeight_IsbL-0001_RLatLon0.09_PT015H.grib2 2026-05-09 08:47 249K
20260509T06Z_MSC_RDPS_GeopotentialHeight_IsbL-0005_RLatLon0.09_PT015H.grib2 2026-05-09 08:47 310K
20260509T06Z_MSC_RDPS_GeopotentialHeight_IsbL-0010_RLatLon0.09_PT015H.grib2 2026-05-09 08:47 310K
20260509T06Z_MSC_RDPS_GeopotentialHeight_IsbL-0020_RLatLon0.09_PT015H.grib2 2026-05-09 08:47 310K
20260509T06Z_MSC_RDPS_GeopotentialHeight_IsbL-0030_RLatLon0.09_PT015H.grib2 2026-05-09 08:47 310K
20260509T06Z_MSC_RDPS_GeopotentialHeight_IsbL-0050_RLatLon0.09_PT015H.grib2 2026-05-09 08:47 311K
20260509T06Z_MSC_RDPS_GeopotentialHeight_IsbL-0100_RLatLon0.09_PT015H.grib2 2026-05-09 08:47 287K
20260509T06Z_MSC_RDPS_GeopotentialHeight_IsbL-0150_RLatLon0.09_PT015H.grib2 2026-05-09 08:47 227K
20260509T06Z_MSC_RDPS_GeopotentialHeight_IsbL-0175_RLatLon0.09_PT015H.grib2 2026-05-09 08:47 231K
20260509T06Z_MSC_RDPS_GeopotentialHeight_IsbL-0200_RLatLon0.09_PT015H.grib2 2026-05-09 08:47 234K
20260509T06Z_MSC_RDPS_GeopotentialHeight_IsbL-0225_RLatLon0.09_PT015H.grib2 2026-05-09 08:47 267K
20260509T06Z_MSC_RDPS_GeopotentialHeight_IsbL-0250_RLatLon0.09_PT015H.grib2 2026-05-09 08:47 268K
20260509T06Z_MSC_RDPS_GeopotentialHeight_IsbL-0275_RLatLon0.09_PT015H.grib2 2026-05-09 08:47 269K
20260509T06Z_MSC_RDPS_GeopotentialHeight_IsbL-0300_RLatLon0.09_PT015H.grib2 2026-05-09 08:47 237K
20260509T06Z_MSC_RDPS_GeopotentialHeight_IsbL-0350_RLatLon0.09_PT015H.grib2 2026-05-09 08:47 232K
20260509T06Z_MSC_RDPS_GeopotentialHeight_IsbL-0400_RLatLon0.09_PT015H.grib2 2026-05-09 08:47 229K
20260509T06Z_MSC_RDPS_GeopotentialHeight_IsbL-0450_RLatLon0.09_PT015H.grib2 2026-05-09 08:47 297K
20260509T06Z_MSC_RDPS_GeopotentialHeight_IsbL-0500_RLatLon0.09_PT015H.grib2 2026-05-09 08:47 293K
20260509T06Z_MSC_RDPS_GeopotentialHeight_IsbL-0550_RLatLon0.09_PT015H.grib2 2026-05-09 08:47 290K
20260509T06Z_MSC_RDPS_GeopotentialHeight_IsbL-0600_RLatLon0.09_PT015H.grib2 2026-05-09 08:47 288K
20260509T06Z_MSC_RDPS_GeopotentialHeight_IsbL-0650_RLatLon0.09_PT015H.grib2 2026-05-09 08:47 259K
20260509T06Z_MSC_RDPS_GeopotentialHeight_IsbL-0700_RLatLon0.09_PT015H.grib2 2026-05-09 08:47 260K
20260509T06Z_MSC_RDPS_GeopotentialHeight_IsbL-0750_RLatLon0.09_PT015H.grib2 2026-05-09 08:47 263K
20260509T06Z_MSC_RDPS_GeopotentialHeight_IsbL-0800_RLatLon0.09_PT015H.grib2 2026-05-09 08:47 269K
20260509T06Z_MSC_RDPS_GeopotentialHeight_IsbL-0850_RLatLon0.09_PT015H.grib2 2026-05-09 08:47 360K
20260509T06Z_MSC_RDPS_GeopotentialHeight_IsbL-0875_RLatLon0.09_PT015H.grib2 2026-05-09 08:47 363K
20260509T06Z_MSC_RDPS_GeopotentialHeight_IsbL-0900_RLatLon0.09_PT015H.grib2 2026-05-09 08:47 368K
20260509T06Z_MSC_RDPS_GeopotentialHeight_IsbL-0925_RLatLon0.09_PT015H.grib2 2026-05-09 08:47 372K
20260509T06Z_MSC_RDPS_GeopotentialHeight_IsbL-0950_RLatLon0.09_PT015H.grib2 2026-05-09 08:47 376K
20260509T06Z_MSC_RDPS_GeopotentialHeight_IsbL-0970_RLatLon0.09_PT015H.grib2 2026-05-09 08:47 383K
20260509T06Z_MSC_RDPS_GeopotentialHeight_IsbL-0985_RLatLon0.09_PT015H.grib2 2026-05-09 08:47 392K
20260509T06Z_MSC_RDPS_GeopotentialHeight_IsbL-1000_RLatLon0.09_PT015H.grib2 2026-05-09 08:47 403K
20260509T06Z_MSC_RDPS_GeopotentialHeight_IsbL-1015_RLatLon0.09_PT015H.grib2 2026-05-09 08:47 418K
20260509T06Z_MSC_RDPS_HighLowPressure_MSL_RLatLon0.09_PT015H.json 2026-05-09 08:39 18K
20260509T06Z_MSC_RDPS_Humidex_Sfc_RLatLon0.09_PT015H.grib2 2026-05-09 08:47 2.4M
20260509T06Z_MSC_RDPS_IcePellets-Accum1h_Sfc_RLatLon0.09_PT015H.grib2 2026-05-09 08:47 4.3K
20260509T06Z_MSC_RDPS_IcePellets-Accum3h_Sfc_RLatLon0.09_PT015H.grib2 2026-05-09 08:47 4.3K
20260509T06Z_MSC_RDPS_IcePellets-Accum_Sfc_RLatLon0.09_PT015H.grib2 2026-05-09 08:47 16K
20260509T06Z_MSC_RDPS_KIndex_Sfc_RLatLon0.09_PT015H.grib2 2026-05-09 08:47 2.5M
20260509T06Z_MSC_RDPS_LatentHeatNetFlux_Sfc_RLatLon0.09_PT015H.grib2 2026-05-09 08:47 319K
20260509T06Z_MSC_RDPS_LiftedIndex-MU-VT_IsbL-0500_RLatLon0.09_PT015H.grib2 2026-05-09 08:47 2.4M
20260509T06Z_MSC_RDPS_NetLongwaveRadiationFlux-Accum_Sfc_RLatLon0.09_PT015H.grib2 2026-05-09 08:47 515K
20260509T06Z_MSC_RDPS_NetShortwaveRadiationFlux-Accum_Sfc_RLatLon0.09_PT015H.grib2 2026-05-09 08:47 582K
20260509T06Z_MSC_RDPS_PlanetaryBoundaryLayerHeight_Sfc_RLatLon0.09_PT015H.grib2 2026-05-09 08:47 1.0M
20260509T06Z_MSC_RDPS_Precip-Accum1h_Sfc_RLatLon0.09_PT015H.grib2 2026-05-09 08:47 1.2M
20260509T06Z_MSC_RDPS_Precip-Accum3h_Sfc_RLatLon0.09_PT015H.grib2 2026-05-09 08:47 1.3M
20260509T06Z_MSC_RDPS_Precip-Accum_Sfc_RLatLon0.09_PT015H.grib2 2026-05-09 08:47 1.7M
20260509T06Z_MSC_RDPS_PrecipRate_Sfc_RLatLon0.09_PT015H.grib2 2026-05-09 08:47 183K
20260509T06Z_MSC_RDPS_PrecipType-Instant_Sfc_RLatLon0.09_PT015H.grib2 2026-05-09 08:47 607K
20260509T06Z_MSC_RDPS_Pressure-Trend3h_Sfc_RLatLon0.09_PT015H.grib2 2026-05-09 08:47 1.2M
20260509T06Z_MSC_RDPS_Pressure_MSL_RLatLon0.09_PT015H.grib2 2026-05-09 08:47 333K
20260509T06Z_MSC_RDPS_Pressure_PVU-1.5_RLatLon0.09_PT015H.grib2 2026-05-09 08:47 2.3M
20260509T06Z_MSC_RDPS_Pressure_PVU-1_RLatLon0.09_PT015H.grib2 2026-05-09 08:47 2.4M
20260509T06Z_MSC_RDPS_Pressure_PVU-2_RLatLon0.09_PT015H.grib2 2026-05-09 08:47 2.4M
20260509T06Z_MSC_RDPS_Pressure_Sfc_RLatLon0.09_PT015H.grib2 2026-05-09 08:47 500K
20260509T06Z_MSC_RDPS_RadiativeTemp_Sfc_RLatLon0.09_PT015H.grib2 2026-05-09 08:47 327K
20260509T06Z_MSC_RDPS_Rain-Accum1h_Sfc_RLatLon0.09_PT015H.grib2 2026-05-09 08:47 656K
20260509T06Z_MSC_RDPS_Rain-Accum3h_Sfc_RLatLon0.09_PT015H.grib2 2026-05-09 08:47 754K
20260509T06Z_MSC_RDPS_Rain-Accum_Sfc_RLatLon0.09_PT015H.grib2 2026-05-09 08:47 1.3M
20260509T06Z_MSC_RDPS_RelativeHumidity_AGL-2m_RLatLon0.09_PT015H.grib2 2026-05-09 08:47 1.0M
20260509T06Z_MSC_RDPS_RelativeHumidity_IsbL-0010_RLatLon0.09_PT015H.grib2 2026-05-09 08:47 603K
20260509T06Z_MSC_RDPS_RelativeHumidity_IsbL-0020_RLatLon0.09_PT015H.grib2 2026-05-09 08:47 650K
20260509T06Z_MSC_RDPS_RelativeHumidity_IsbL-0030_RLatLon0.09_PT015H.grib2 2026-05-09 08:47 628K
20260509T06Z_MSC_RDPS_RelativeHumidity_IsbL-0050_RLatLon0.09_PT015H.grib2 2026-05-09 08:47 355K
20260509T06Z_MSC_RDPS_RelativeHumidity_IsbL-0100_RLatLon0.09_PT015H.grib2 2026-05-09 08:47 281K
20260509T06Z_MSC_RDPS_RelativeHumidity_IsbL-0150_RLatLon0.09_PT015H.grib2 2026-05-09 08:47 423K
20260509T06Z_MSC_RDPS_RelativeHumidity_IsbL-0175_RLatLon0.09_PT015H.grib2 2026-05-09 08:47 479K
20260509T06Z_MSC_RDPS_RelativeHumidity_IsbL-0200_RLatLon0.09_PT015H.grib2 2026-05-09 08:47 548K
20260509T06Z_MSC_RDPS_RelativeHumidity_IsbL-0225_RLatLon0.09_PT015H.grib2 2026-05-09 08:47 623K
20260509T06Z_MSC_RDPS_RelativeHumidity_IsbL-0250_RLatLon0.09_PT015H.grib2 2026-05-09 08:47 695K
20260509T06Z_MSC_RDPS_RelativeHumidity_IsbL-0275_RLatLon0.09_PT015H.grib2 2026-05-09 08:47 722K
20260509T06Z_MSC_RDPS_RelativeHumidity_IsbL-0300_RLatLon0.09_PT015H.grib2 2026-05-09 08:47 758K
20260509T06Z_MSC_RDPS_RelativeHumidity_IsbL-0350_RLatLon0.09_PT015H.grib2 2026-05-09 08:47 764K
20260509T06Z_MSC_RDPS_RelativeHumidity_IsbL-0400_RLatLon0.09_PT015H.grib2 2026-05-09 08:47 778K
20260509T06Z_MSC_RDPS_RelativeHumidity_IsbL-0450_RLatLon0.09_PT015H.grib2 2026-05-09 08:47 786K
20260509T06Z_MSC_RDPS_RelativeHumidity_IsbL-0500_RLatLon0.09_PT015H.grib2 2026-05-09 08:47 798K
20260509T06Z_MSC_RDPS_RelativeHumidity_IsbL-0550_RLatLon0.09_PT015H.grib2 2026-05-09 08:47 830K
20260509T06Z_MSC_RDPS_RelativeHumidity_IsbL-0600_RLatLon0.09_PT015H.grib2 2026-05-09 08:47 841K
20260509T06Z_MSC_RDPS_RelativeHumidity_IsbL-0650_RLatLon0.09_PT015H.grib2 2026-05-09 08:47 860K
20260509T06Z_MSC_RDPS_RelativeHumidity_IsbL-0700_RLatLon0.09_PT015H.grib2 2026-05-09 08:47 906K
20260509T06Z_MSC_RDPS_RelativeHumidity_IsbL-0750_RLatLon0.09_PT015H.grib2 2026-05-09 08:47 956K
20260509T06Z_MSC_RDPS_RelativeHumidity_IsbL-0800_RLatLon0.09_PT015H.grib2 2026-05-09 08:47 1.0M
20260509T06Z_MSC_RDPS_RelativeHumidity_IsbL-0850_RLatLon0.09_PT015H.grib2 2026-05-09 08:47 1.0M
20260509T06Z_MSC_RDPS_RelativeHumidity_IsbL-0875_RLatLon0.09_PT015H.grib2 2026-05-09 08:47 1.1M
20260509T06Z_MSC_RDPS_RelativeHumidity_IsbL-0900_RLatLon0.09_PT015H.grib2 2026-05-09 08:47 1.1M
20260509T06Z_MSC_RDPS_RelativeHumidity_IsbL-0925_RLatLon0.09_PT015H.grib2 2026-05-09 08:47 1.1M
20260509T06Z_MSC_RDPS_RelativeHumidity_IsbL-0950_RLatLon0.09_PT015H.grib2 2026-05-09 08:47 1.1M
20260509T06Z_MSC_RDPS_RelativeHumidity_IsbL-0970_RLatLon0.09_PT015H.grib2 2026-05-09 08:47 1.0M
20260509T06Z_MSC_RDPS_RelativeHumidity_IsbL-0985_RLatLon0.09_PT015H.grib2 2026-05-09 08:47 1.0M
20260509T06Z_MSC_RDPS_RelativeHumidity_IsbL-1000_RLatLon0.09_PT015H.grib2 2026-05-09 08:47 1.0M
20260509T06Z_MSC_RDPS_RelativeHumidity_IsbL-1015_RLatLon0.09_PT015H.grib2 2026-05-09 08:47 1.0M
20260509T06Z_MSC_RDPS_Runoff-Accum_Sfc_RLatLon0.09_PT015H.grib2 2026-05-09 08:47 38K
20260509T06Z_MSC_RDPS_SWEATIndex_Sfc_RLatLon0.09_PT015H.grib2 2026-05-09 08:47 2.5M
20260509T06Z_MSC_RDPS_SeeingIndex_EAtm_RLatLon0.09_PT015H.grib2 2026-05-09 08:47 1.0M
20260509T06Z_MSC_RDPS_SensibleHeatNetFlux_Sfc_RLatLon0.09_PT015H.grib2 2026-05-09 08:47 279K
20260509T06Z_MSC_RDPS_ShowalterIndex_IsbL-0500_RLatLon0.09_PT015H.grib2 2026-05-09 08:47 2.6M
20260509T06Z_MSC_RDPS_SkyTransparencyIndex_EAtm_RLatLon0.09_PT015H.grib2 2026-05-09 08:47 693K
20260509T06Z_MSC_RDPS_Snow-Accum1h_Sfc_RLatLon0.09_PT015H.grib2 2026-05-09 08:47 353K
20260509T06Z_MSC_RDPS_Snow-Accum3h_Sfc_RLatLon0.09_PT015H.grib2 2026-05-09 08:47 365K
20260509T06Z_MSC_RDPS_Snow-Accum_Sfc_RLatLon0.09_PT015H.grib2 2026-05-09 08:47 552K
20260509T06Z_MSC_RDPS_SnowDensity_Sfc_RLatLon0.09_PT015H.grib2 2026-05-09 08:47 165K
20260509T06Z_MSC_RDPS_SnowDepth_Sfc_RLatLon0.09_PT015H.grib2 2026-05-09 08:47 620K
20260509T06Z_MSC_RDPS_SoilTemp_DBS-0to10cm_RLatLon0.09_PT015H.grib2 2026-05-09 08:47 220K
20260509T06Z_MSC_RDPS_SoilTemp_Sfc_RLatLon0.09_PT015H.grib2 2026-05-09 08:47 291K
20260509T06Z_MSC_RDPS_SoilVolumetricIceContent_Sfc_RLatLon0.09_PT015H.grib2 2026-05-09 08:47 144K
20260509T06Z_MSC_RDPS_SoilVolumetricWaterContent_DBS-0to10cm_RLatLon0.09_PT015H.grib2 2026-05-09 08:47 289K
20260509T06Z_MSC_RDPS_SoilVolumetricWaterContent_DBS-0to1cm_RLatLon0.09_PT015H.grib2 2026-05-09 08:47 339K
20260509T06Z_MSC_RDPS_SpecificHumidity_AGL-120m_RLatLon0.09_PT015H.grib2 2026-05-09 08:47 505K
20260509T06Z_MSC_RDPS_SpecificHumidity_AGL-2m_RLatLon0.09_PT015H.grib2 2026-05-09 08:47 677K
20260509T06Z_MSC_RDPS_SpecificHumidity_AGL-40m_RLatLon0.09_PT015H.grib2 2026-05-09 08:47 509K
20260509T06Z_MSC_RDPS_SpecificHumidity_AGL-80m_RLatLon0.09_PT015H.grib2 2026-05-09 08:47 506K
20260509T06Z_MSC_RDPS_SpecificHumidity_IsbL-0001_RLatLon0.09_PT015H.grib2 2026-05-09 08:47 364K
20260509T06Z_MSC_RDPS_SpecificHumidity_IsbL-0005_RLatLon0.09_PT015H.grib2 2026-05-09 08:47 371K
20260509T06Z_MSC_RDPS_SpecificHumidity_IsbL-0010_RLatLon0.09_PT015H.grib2 2026-05-09 08:47 397K
20260509T06Z_MSC_RDPS_SpecificHumidity_IsbL-0020_RLatLon0.09_PT015H.grib2 2026-05-09 08:47 383K
20260509T06Z_MSC_RDPS_SpecificHumidity_IsbL-0030_RLatLon0.09_PT015H.grib2 2026-05-09 08:47 375K
20260509T06Z_MSC_RDPS_SpecificHumidity_IsbL-0050_RLatLon0.09_PT015H.grib2 2026-05-09 08:47 486K
20260509T06Z_MSC_RDPS_SpecificHumidity_IsbL-0100_RLatLon0.09_PT015H.grib2 2026-05-09 08:47 439K
20260509T06Z_MSC_RDPS_SpecificHumidity_IsbL-0150_RLatLon0.09_PT015H.grib2 2026-05-09 08:47 466K
20260509T06Z_MSC_RDPS_SpecificHumidity_IsbL-0175_RLatLon0.09_PT015H.grib2 2026-05-09 08:47 443K
20260509T06Z_MSC_RDPS_SpecificHumidity_IsbL-0200_RLatLon0.09_PT015H.grib2 2026-05-09 08:47 476K
20260509T06Z_MSC_RDPS_SpecificHumidity_IsbL-0225_RLatLon0.09_PT015H.grib2 2026-05-09 08:47 470K
20260509T06Z_MSC_RDPS_SpecificHumidity_IsbL-0250_RLatLon0.09_PT015H.grib2 2026-05-09 08:47 533K
20260509T06Z_MSC_RDPS_SpecificHumidity_IsbL-0275_RLatLon0.09_PT015H.grib2 2026-05-09 08:47 490K
20260509T06Z_MSC_RDPS_SpecificHumidity_IsbL-0300_RLatLon0.09_PT015H.grib2 2026-05-09 08:47 458K
20260509T06Z_MSC_RDPS_SpecificHumidity_IsbL-0350_RLatLon0.09_PT015H.grib2 2026-05-09 08:47 568K
20260509T06Z_MSC_RDPS_SpecificHumidity_IsbL-0400_RLatLon0.09_PT015H.grib2 2026-05-09 08:47 523K
20260509T06Z_MSC_RDPS_SpecificHumidity_IsbL-0450_RLatLon0.09_PT015H.grib2 2026-05-09 08:47 577K
20260509T06Z_MSC_RDPS_SpecificHumidity_IsbL-0500_RLatLon0.09_PT015H.grib2 2026-05-09 08:47 517K
20260509T06Z_MSC_RDPS_SpecificHumidity_IsbL-0550_RLatLon0.09_PT015H.grib2 2026-05-09 08:47 590K
20260509T06Z_MSC_RDPS_SpecificHumidity_IsbL-0600_RLatLon0.09_PT015H.grib2 2026-05-09 08:47 645K
20260509T06Z_MSC_RDPS_SpecificHumidity_IsbL-0650_RLatLon0.09_PT015H.grib2 2026-05-09 08:47 568K
20260509T06Z_MSC_RDPS_SpecificHumidity_IsbL-0700_RLatLon0.09_PT015H.grib2 2026-05-09 08:47 621K
20260509T06Z_MSC_RDPS_SpecificHumidity_IsbL-0750_RLatLon0.09_PT015H.grib2 2026-05-09 08:47 689K
20260509T06Z_MSC_RDPS_SpecificHumidity_IsbL-0800_RLatLon0.09_PT015H.grib2 2026-05-09 08:47 776K
20260509T06Z_MSC_RDPS_SpecificHumidity_IsbL-0850_RLatLon0.09_PT015H.grib2 2026-05-09 08:47 835K
20260509T06Z_MSC_RDPS_SpecificHumidity_IsbL-0875_RLatLon0.09_PT015H.grib2 2026-05-09 08:47 717K
20260509T06Z_MSC_RDPS_SpecificHumidity_IsbL-0900_RLatLon0.09_PT015H.grib2 2026-05-09 08:47 725K
20260509T06Z_MSC_RDPS_SpecificHumidity_IsbL-0925_RLatLon0.09_PT015H.grib2 2026-05-09 08:47 727K
20260509T06Z_MSC_RDPS_SpecificHumidity_IsbL-0950_RLatLon0.09_PT015H.grib2 2026-05-09 08:47 725K
20260509T06Z_MSC_RDPS_SpecificHumidity_IsbL-0970_RLatLon0.09_PT015H.grib2 2026-05-09 08:47 719K
20260509T06Z_MSC_RDPS_SpecificHumidity_IsbL-0985_RLatLon0.09_PT015H.grib2 2026-05-09 08:47 709K
20260509T06Z_MSC_RDPS_SpecificHumidity_IsbL-1000_RLatLon0.09_PT015H.grib2 2026-05-09 08:47 702K
20260509T06Z_MSC_RDPS_SpecificHumidity_IsbL-1015_RLatLon0.09_PT015H.grib2 2026-05-09 08:47 690K
20260509T06Z_MSC_RDPS_SpecificHumidity_Sfc_RLatLon0.09_PT015H.grib2 2026-05-09 08:47 356K
20260509T06Z_MSC_RDPS_StormRelativeHelicity_EtaL-10000_RLatLon0.09_PT015H.grib2 2026-05-09 08:47 1.1M
20260509T06Z_MSC_RDPS_StormSeverityIndex_EtaL-10000_RLatLon0.09_PT015H.grib2 2026-05-09 08:47 1.1M
20260509T06Z_MSC_RDPS_Thickness_IsbL-0850to0700_RLatLon0.09_PT015H.grib2 2026-05-09 08:47 255K
20260509T06Z_MSC_RDPS_Thickness_IsbL-1000to0500_RLatLon0.09_PT015H.grib2 2026-05-09 08:47 200K
20260509T06Z_MSC_RDPS_Thickness_IsbL-1000to0850_RLatLon0.09_PT015H.grib2 2026-05-09 08:47 267K
20260509T06Z_MSC_RDPS_TotalCloudCover_Sfc_RLatLon0.09_PT015H.grib2 2026-05-09 08:47 655K
20260509T06Z_MSC_RDPS_TotalTotalsIndex_Sfc_RLatLon0.09_PT015H.grib2 2026-05-09 08:47 2.4M
20260509T06Z_MSC_RDPS_UVIndex-ClearSky_Sfc_RLatLon0.09_PT015H.grib2 2026-05-09 08:47 205K
20260509T06Z_MSC_RDPS_UVIndex_Sfc_RLatLon0.09_PT015H.grib2 2026-05-09 08:47 490K
20260509T06Z_MSC_RDPS_UpwardLongwaveRadiationFlux_NTAtm_RLatLon0.09_PT015H.grib2 2026-05-09 08:47 387K
20260509T06Z_MSC_RDPS_UpwardShortwaveRadiationFlux_NTAtm_RLatLon0.09_PT015H.grib2 2026-05-09 08:47 526K
20260509T06Z_MSC_RDPS_VerticalVelocity_IsbL-0250_RLatLon0.09_PT015H.grib2 2026-05-09 08:47 581K
20260509T06Z_MSC_RDPS_VerticalVelocity_IsbL-0500_RLatLon0.09_PT015H.grib2 2026-05-09 08:47 539K
20260509T06Z_MSC_RDPS_VerticalVelocity_IsbL-0700_RLatLon0.09_PT015H.grib2 2026-05-09 08:47 610K
20260509T06Z_MSC_RDPS_VerticalVelocity_IsbL-0850_RLatLon0.09_PT015H.grib2 2026-05-09 08:47 716K
20260509T06Z_MSC_RDPS_VerticalWindShear_EtaL-6500_RLatLon0.09_PT015H.grib2 2026-05-09 08:47 1.2M
20260509T06Z_MSC_RDPS_WindChill_Sfc_RLatLon0.09_PT015H.grib2 2026-05-09 08:47 1.2M
20260509T06Z_MSC_RDPS_WindDir_AGL-10m_RLatLon0.09_PT015H.grib2 2026-05-09 08:47 958K
20260509T06Z_MSC_RDPS_WindDir_AGL-120m_RLatLon0.09_PT015H.grib2 2026-05-09 08:47 608K
20260509T06Z_MSC_RDPS_WindDir_AGL-40m_RLatLon0.09_PT015H.grib2 2026-05-09 08:47 628K
20260509T06Z_MSC_RDPS_WindDir_AGL-80m_RLatLon0.09_PT015H.grib2 2026-05-09 08:47 616K
20260509T06Z_MSC_RDPS_WindDir_IsbL-0001_RLatLon0.09_PT015H.grib2 2026-05-09 08:47 277K
20260509T06Z_MSC_RDPS_WindDir_IsbL-0005_RLatLon0.09_PT015H.grib2 2026-05-09 08:47 349K
20260509T06Z_MSC_RDPS_WindDir_IsbL-0010_RLatLon0.09_PT015H.grib2 2026-05-09 08:47 386K
20260509T06Z_MSC_RDPS_WindDir_IsbL-0020_RLatLon0.09_PT015H.grib2 2026-05-09 08:47 415K
20260509T06Z_MSC_RDPS_WindDir_IsbL-0030_RLatLon0.09_PT015H.grib2 2026-05-09 08:47 425K
20260509T06Z_MSC_RDPS_WindDir_IsbL-0050_RLatLon0.09_PT015H.grib2 2026-05-09 08:47 421K
20260509T06Z_MSC_RDPS_WindDir_IsbL-0100_RLatLon0.09_PT015H.grib2 2026-05-09 08:47 414K
20260509T06Z_MSC_RDPS_WindDir_IsbL-0150_RLatLon0.09_PT015H.grib2 2026-05-09 08:47 422K
20260509T06Z_MSC_RDPS_WindDir_IsbL-0175_RLatLon0.09_PT015H.grib2 2026-05-09 08:47 451K
20260509T06Z_MSC_RDPS_WindDir_IsbL-0200_RLatLon0.09_PT015H.grib2 2026-05-09 08:47 464K
20260509T06Z_MSC_RDPS_WindDir_IsbL-0225_RLatLon0.09_PT015H.grib2 2026-05-09 08:47 467K
20260509T06Z_MSC_RDPS_WindDir_IsbL-0250_RLatLon0.09_PT015H.grib2 2026-05-09 08:47 468K
20260509T06Z_MSC_RDPS_WindDir_IsbL-0275_RLatLon0.09_PT015H.grib2 2026-05-09 08:47 485K
20260509T06Z_MSC_RDPS_WindDir_IsbL-0300_RLatLon0.09_PT015H.grib2 2026-05-09 08:47 482K
20260509T06Z_MSC_RDPS_WindDir_IsbL-0350_RLatLon0.09_PT015H.grib2 2026-05-09 08:47 504K
20260509T06Z_MSC_RDPS_WindDir_IsbL-0400_RLatLon0.09_PT015H.grib2 2026-05-09 08:47 526K
20260509T06Z_MSC_RDPS_WindDir_IsbL-0450_RLatLon0.09_PT015H.grib2 2026-05-09 08:47 544K
20260509T06Z_MSC_RDPS_WindDir_IsbL-0500_RLatLon0.09_PT015H.grib2 2026-05-09 08:47 569K
20260509T06Z_MSC_RDPS_WindDir_IsbL-0550_RLatLon0.09_PT015H.grib2 2026-05-09 08:47 582K
20260509T06Z_MSC_RDPS_WindDir_IsbL-0600_RLatLon0.09_PT015H.grib2 2026-05-09 08:47 604K
20260509T06Z_MSC_RDPS_WindDir_IsbL-0650_RLatLon0.09_PT015H.grib2 2026-05-09 08:47 643K
20260509T06Z_MSC_RDPS_WindDir_IsbL-0700_RLatLon0.09_PT015H.grib2 2026-05-09 08:47 689K
20260509T06Z_MSC_RDPS_WindDir_IsbL-0750_RLatLon0.09_PT015H.grib2 2026-05-09 08:47 741K
20260509T06Z_MSC_RDPS_WindDir_IsbL-0800_RLatLon0.09_PT015H.grib2 2026-05-09 08:47 802K
20260509T06Z_MSC_RDPS_WindDir_IsbL-0850_RLatLon0.09_PT015H.grib2 2026-05-09 08:47 868K
20260509T06Z_MSC_RDPS_WindDir_IsbL-0875_RLatLon0.09_PT015H.grib2 2026-05-09 08:47 892K
20260509T06Z_MSC_RDPS_WindDir_IsbL-0900_RLatLon0.09_PT015H.grib2 2026-05-09 08:47 906K
20260509T06Z_MSC_RDPS_WindDir_IsbL-0925_RLatLon0.09_PT015H.grib2 2026-05-09 08:47 912K
20260509T06Z_MSC_RDPS_WindDir_IsbL-0950_RLatLon0.09_PT015H.grib2 2026-05-09 08:47 911K
20260509T06Z_MSC_RDPS_WindDir_IsbL-0970_RLatLon0.09_PT015H.grib2 2026-05-09 08:47 914K
20260509T06Z_MSC_RDPS_WindDir_IsbL-0985_RLatLon0.09_PT015H.grib2 2026-05-09 08:47 922K
20260509T06Z_MSC_RDPS_WindDir_IsbL-1000_RLatLon0.09_PT015H.grib2 2026-05-09 08:47 937K
20260509T06Z_MSC_RDPS_WindDir_IsbL-1015_RLatLon0.09_PT015H.grib2 2026-05-09 08:47 952K
20260509T06Z_MSC_RDPS_WindGust-Max_AGL-10m_RLatLon0.09_PT015H.grib2 2026-05-09 08:47 1.0M
20260509T06Z_MSC_RDPS_WindGust-Min_AGL-10m_RLatLon0.09_PT015H.grib2 2026-05-09 08:47 1.0M
20260509T06Z_MSC_RDPS_WindGust_AGL-10m_RLatLon0.09_PT015H.grib2 2026-05-09 08:47 1.0M
20260509T06Z_MSC_RDPS_WindSpeed_AGL-10m_RLatLon0.09_PT015H.grib2 2026-05-09 08:47 846K
20260509T06Z_MSC_RDPS_WindSpeed_AGL-120m_RLatLon0.09_PT015H.grib2 2026-05-09 08:47 539K
20260509T06Z_MSC_RDPS_WindSpeed_AGL-40m_RLatLon0.09_PT015H.grib2 2026-05-09 08:47 675K
20260509T06Z_MSC_RDPS_WindSpeed_AGL-80m_RLatLon0.09_PT015H.grib2 2026-05-09 08:47 670K
20260509T06Z_MSC_RDPS_WindSpeed_IsbL-0001_RLatLon0.09_PT015H.grib2 2026-05-09 08:47 253K
20260509T06Z_MSC_RDPS_WindSpeed_IsbL-0005_RLatLon0.09_PT015H.grib2 2026-05-09 08:47 378K
20260509T06Z_MSC_RDPS_WindSpeed_IsbL-0010_RLatLon0.09_PT015H.grib2 2026-05-09 08:47 395K
20260509T06Z_MSC_RDPS_WindSpeed_IsbL-0020_RLatLon0.09_PT015H.grib2 2026-05-09 08:47 321K
20260509T06Z_MSC_RDPS_WindSpeed_IsbL-0030_RLatLon0.09_PT015H.grib2 2026-05-09 08:47 317K
20260509T06Z_MSC_RDPS_WindSpeed_IsbL-0050_RLatLon0.09_PT015H.grib2 2026-05-09 08:47 340K
20260509T06Z_MSC_RDPS_WindSpeed_IsbL-0100_RLatLon0.09_PT015H.grib2 2026-05-09 08:47 475K
20260509T06Z_MSC_RDPS_WindSpeed_IsbL-0150_RLatLon0.09_PT015H.grib2 2026-05-09 08:47 379K
20260509T06Z_MSC_RDPS_WindSpeed_IsbL-0175_RLatLon0.09_PT015H.grib2 2026-05-09 08:47 427K
20260509T06Z_MSC_RDPS_WindSpeed_IsbL-0200_RLatLon0.09_PT015H.grib2 2026-05-09 08:47 442K
20260509T06Z_MSC_RDPS_WindSpeed_IsbL-0225_RLatLon0.09_PT015H.grib2 2026-05-09 08:47 449K
20260509T06Z_MSC_RDPS_WindSpeed_IsbL-0250_RLatLon0.09_PT015H.grib2 2026-05-09 08:47 455K
20260509T06Z_MSC_RDPS_WindSpeed_IsbL-0275_RLatLon0.09_PT015H.grib2 2026-05-09 08:47 473K
20260509T06Z_MSC_RDPS_WindSpeed_IsbL-0300_RLatLon0.09_PT015H.grib2 2026-05-09 08:47 469K
20260509T06Z_MSC_RDPS_WindSpeed_IsbL-0350_RLatLon0.09_PT015H.grib2 2026-05-09 08:47 476K
20260509T06Z_MSC_RDPS_WindSpeed_IsbL-0400_RLatLon0.09_PT015H.grib2 2026-05-09 08:47 480K
20260509T06Z_MSC_RDPS_WindSpeed_IsbL-0450_RLatLon0.09_PT015H.grib2 2026-05-09 08:47 467K
20260509T06Z_MSC_RDPS_WindSpeed_IsbL-0500_RLatLon0.09_PT015H.grib2 2026-05-09 08:47 470K
20260509T06Z_MSC_RDPS_WindSpeed_IsbL-0550_RLatLon0.09_PT015H.grib2 2026-05-09 08:47 590K
20260509T06Z_MSC_RDPS_WindSpeed_IsbL-0600_RLatLon0.09_PT015H.grib2 2026-05-09 08:47 603K
20260509T06Z_MSC_RDPS_WindSpeed_IsbL-0650_RLatLon0.09_PT015H.grib2 2026-05-09 08:47 625K
20260509T06Z_MSC_RDPS_WindSpeed_IsbL-0700_RLatLon0.09_PT015H.grib2 2026-05-09 08:47 654K
20260509T06Z_MSC_RDPS_WindSpeed_IsbL-0750_RLatLon0.09_PT015H.grib2 2026-05-09 08:47 734K
20260509T06Z_MSC_RDPS_WindSpeed_IsbL-0800_RLatLon0.09_PT015H.grib2 2026-05-09 08:47 779K
20260509T06Z_MSC_RDPS_WindSpeed_IsbL-0850_RLatLon0.09_PT015H.grib2 2026-05-09 08:47 826K
20260509T06Z_MSC_RDPS_WindSpeed_IsbL-0875_RLatLon0.09_PT015H.grib2 2026-05-09 08:47 843K
20260509T06Z_MSC_RDPS_WindSpeed_IsbL-0900_RLatLon0.09_PT015H.grib2 2026-05-09 08:47 854K
20260509T06Z_MSC_RDPS_WindSpeed_IsbL-0925_RLatLon0.09_PT015H.grib2 2026-05-09 08:47 869K
20260509T06Z_MSC_RDPS_WindSpeed_IsbL-0950_RLatLon0.09_PT015H.grib2 2026-05-09 08:47 870K
20260509T06Z_MSC_RDPS_WindSpeed_IsbL-0970_RLatLon0.09_PT015H.grib2 2026-05-09 08:47 865K
20260509T06Z_MSC_RDPS_WindSpeed_IsbL-0985_RLatLon0.09_PT015H.grib2 2026-05-09 08:47 861K
20260509T06Z_MSC_RDPS_WindSpeed_IsbL-1000_RLatLon0.09_PT015H.grib2 2026-05-09 08:47 856K
20260509T06Z_MSC_RDPS_WindSpeed_IsbL-1015_RLatLon0.09_PT015H.grib2 2026-05-09 08:47 848K
20260509T06Z_MSC_RDPS_WindU_AGL-10m_RLatLon0.09_PT015H.grib2 2026-05-09 08:47 437K
20260509T06Z_MSC_RDPS_WindU_AGL-120m_RLatLon0.09_PT015H.grib2 2026-05-09 08:47 537K
20260509T06Z_MSC_RDPS_WindU_AGL-40m_RLatLon0.09_PT015H.grib2 2026-05-09 08:47 541K
20260509T06Z_MSC_RDPS_WindU_AGL-80m_RLatLon0.09_PT015H.grib2 2026-05-09 08:47 538K
20260509T06Z_MSC_RDPS_WindU_IsbL-0001_RLatLon0.09_PT015H.grib2 2026-05-09 08:47 294K
20260509T06Z_MSC_RDPS_WindU_IsbL-0005_RLatLon0.09_PT015H.grib2 2026-05-09 08:47 285K
20260509T06Z_MSC_RDPS_WindU_IsbL-0010_RLatLon0.09_PT015H.grib2 2026-05-09 08:47 296K
20260509T06Z_MSC_RDPS_WindU_IsbL-0020_RLatLon0.09_PT015H.grib2 2026-05-09 08:47 349K
20260509T06Z_MSC_RDPS_WindU_IsbL-0030_RLatLon0.09_PT015H.grib2 2026-05-09 08:47 308K
20260509T06Z_MSC_RDPS_WindU_IsbL-0050_RLatLon0.09_PT015H.grib2 2026-05-09 08:47 371K
20260509T06Z_MSC_RDPS_WindU_IsbL-0100_RLatLon0.09_PT015H.grib2 2026-05-09 08:47 430K
20260509T06Z_MSC_RDPS_WindU_IsbL-0150_RLatLon0.09_PT015H.grib2 2026-05-09 08:47 396K
20260509T06Z_MSC_RDPS_WindU_IsbL-0175_RLatLon0.09_PT015H.grib2 2026-05-09 08:47 422K
20260509T06Z_MSC_RDPS_WindU_IsbL-0200_RLatLon0.09_PT015H.grib2 2026-05-09 08:47 337K
20260509T06Z_MSC_RDPS_WindU_IsbL-0225_RLatLon0.09_PT015H.grib2 2026-05-09 08:47 343K
20260509T06Z_MSC_RDPS_WindU_IsbL-0250_RLatLon0.09_PT015H.grib2 2026-05-09 08:47 344K
20260509T06Z_MSC_RDPS_WindU_IsbL-0275_RLatLon0.09_PT015H.grib2 2026-05-09 08:47 358K
20260509T06Z_MSC_RDPS_WindU_IsbL-0300_RLatLon0.09_PT015H.grib2 2026-05-09 08:47 354K
20260509T06Z_MSC_RDPS_WindU_IsbL-0350_RLatLon0.09_PT015H.grib2 2026-05-09 08:47 360K
20260509T06Z_MSC_RDPS_WindU_IsbL-0400_RLatLon0.09_PT015H.grib2 2026-05-09 08:47 467K
20260509T06Z_MSC_RDPS_WindU_IsbL-0450_RLatLon0.09_PT015H.grib2 2026-05-09 08:47 471K
20260509T06Z_MSC_RDPS_WindU_IsbL-0500_RLatLon0.09_PT015H.grib2 2026-05-09 08:47 475K
20260509T06Z_MSC_RDPS_WindU_IsbL-0550_RLatLon0.09_PT015H.grib2 2026-05-09 08:47 479K
20260509T06Z_MSC_RDPS_WindU_IsbL-0600_RLatLon0.09_PT015H.grib2 2026-05-09 08:47 491K
20260509T06Z_MSC_RDPS_WindU_IsbL-0650_RLatLon0.09_PT015H.grib2 2026-05-09 08:47 495K
20260509T06Z_MSC_RDPS_WindU_IsbL-0700_RLatLon0.09_PT015H.grib2 2026-05-09 08:47 522K
20260509T06Z_MSC_RDPS_WindU_IsbL-0750_RLatLon0.09_PT015H.grib2 2026-05-09 08:47 553K
20260509T06Z_MSC_RDPS_WindU_IsbL-0800_RLatLon0.09_PT015H.grib2 2026-05-09 08:47 592K
20260509T06Z_MSC_RDPS_WindU_IsbL-0850_RLatLon0.09_PT015H.grib2 2026-05-09 08:47 632K
20260509T06Z_MSC_RDPS_WindU_IsbL-0875_RLatLon0.09_PT015H.grib2 2026-05-09 08:47 647K
20260509T06Z_MSC_RDPS_WindU_IsbL-0900_RLatLon0.09_PT015H.grib2 2026-05-09 08:47 660K
20260509T06Z_MSC_RDPS_WindU_IsbL-0925_RLatLon0.09_PT015H.grib2 2026-05-09 08:47 665K
20260509T06Z_MSC_RDPS_WindU_IsbL-0950_RLatLon0.09_PT015H.grib2 2026-05-09 08:47 662K
20260509T06Z_MSC_RDPS_WindU_IsbL-0970_RLatLon0.09_PT015H.grib2 2026-05-09 08:47 658K
20260509T06Z_MSC_RDPS_WindU_IsbL-0985_RLatLon0.09_PT015H.grib2 2026-05-09 08:47 795K
20260509T06Z_MSC_RDPS_WindU_IsbL-1000_RLatLon0.09_PT015H.grib2 2026-05-09 08:47 791K
20260509T06Z_MSC_RDPS_WindU_IsbL-1015_RLatLon0.09_PT015H.grib2 2026-05-09 08:47 833K
20260509T06Z_MSC_RDPS_WindV_AGL-10m_RLatLon0.09_PT015H.grib2 2026-05-09 08:47 437K
20260509T06Z_MSC_RDPS_WindV_AGL-120m_RLatLon0.09_PT015H.grib2 2026-05-09 08:47 537K
20260509T06Z_MSC_RDPS_WindV_AGL-40m_RLatLon0.09_PT015H.grib2 2026-05-09 08:47 540K
20260509T06Z_MSC_RDPS_WindV_AGL-80m_RLatLon0.09_PT015H.grib2 2026-05-09 08:47 538K
20260509T06Z_MSC_RDPS_WindV_IsbL-0001_RLatLon0.09_PT015H.grib2 2026-05-09 08:47 293K
20260509T06Z_MSC_RDPS_WindV_IsbL-0005_RLatLon0.09_PT015H.grib2 2026-05-09 08:47 284K
20260509T06Z_MSC_RDPS_WindV_IsbL-0010_RLatLon0.09_PT015H.grib2 2026-05-09 08:47 296K
20260509T06Z_MSC_RDPS_WindV_IsbL-0020_RLatLon0.09_PT015H.grib2 2026-05-09 08:47 311K
20260509T06Z_MSC_RDPS_WindV_IsbL-0030_RLatLon0.09_PT015H.grib2 2026-05-09 08:47 310K
20260509T06Z_MSC_RDPS_WindV_IsbL-0050_RLatLon0.09_PT015H.grib2 2026-05-09 08:47 334K
20260509T06Z_MSC_RDPS_WindV_IsbL-0100_RLatLon0.09_PT015H.grib2 2026-05-09 08:47 426K
20260509T06Z_MSC_RDPS_WindV_IsbL-0150_RLatLon0.09_PT015H.grib2 2026-05-09 08:47 393K
20260509T06Z_MSC_RDPS_WindV_IsbL-0175_RLatLon0.09_PT015H.grib2 2026-05-09 08:47 418K
20260509T06Z_MSC_RDPS_WindV_IsbL-0200_RLatLon0.09_PT015H.grib2 2026-05-09 08:47 336K
20260509T06Z_MSC_RDPS_WindV_IsbL-0225_RLatLon0.09_PT015H.grib2 2026-05-09 08:47 340K
20260509T06Z_MSC_RDPS_WindV_IsbL-0250_RLatLon0.09_PT015H.grib2 2026-05-09 08:47 369K
20260509T06Z_MSC_RDPS_WindV_IsbL-0275_RLatLon0.09_PT015H.grib2 2026-05-09 08:47 382K
20260509T06Z_MSC_RDPS_WindV_IsbL-0300_RLatLon0.09_PT015H.grib2 2026-05-09 08:47 378K
20260509T06Z_MSC_RDPS_WindV_IsbL-0350_RLatLon0.09_PT015H.grib2 2026-05-09 08:47 359K
20260509T06Z_MSC_RDPS_WindV_IsbL-0400_RLatLon0.09_PT015H.grib2 2026-05-09 08:47 361K
20260509T06Z_MSC_RDPS_WindV_IsbL-0450_RLatLon0.09_PT015H.grib2 2026-05-09 08:47 468K
20260509T06Z_MSC_RDPS_WindV_IsbL-0500_RLatLon0.09_PT015H.grib2 2026-05-09 08:47 471K
20260509T06Z_MSC_RDPS_WindV_IsbL-0550_RLatLon0.09_PT015H.grib2 2026-05-09 08:47 475K
20260509T06Z_MSC_RDPS_WindV_IsbL-0600_RLatLon0.09_PT015H.grib2 2026-05-09 08:47 486K
20260509T06Z_MSC_RDPS_WindV_IsbL-0650_RLatLon0.09_PT015H.grib2 2026-05-09 08:47 505K
20260509T06Z_MSC_RDPS_WindV_IsbL-0700_RLatLon0.09_PT015H.grib2 2026-05-09 08:47 531K
20260509T06Z_MSC_RDPS_WindV_IsbL-0750_RLatLon0.09_PT015H.grib2 2026-05-09 08:47 560K
20260509T06Z_MSC_RDPS_WindV_IsbL-0800_RLatLon0.09_PT015H.grib2 2026-05-09 08:47 587K
20260509T06Z_MSC_RDPS_WindV_IsbL-0850_RLatLon0.09_PT015H.grib2 2026-05-09 08:47 628K
20260509T06Z_MSC_RDPS_WindV_IsbL-0875_RLatLon0.09_PT015H.grib2 2026-05-09 08:47 643K
20260509T06Z_MSC_RDPS_WindV_IsbL-0900_RLatLon0.09_PT015H.grib2 2026-05-09 08:47 657K
20260509T06Z_MSC_RDPS_WindV_IsbL-0925_RLatLon0.09_PT015H.grib2 2026-05-09 08:47 665K
20260509T06Z_MSC_RDPS_WindV_IsbL-0950_RLatLon0.09_PT015H.grib2 2026-05-09 08:47 665K
20260509T06Z_MSC_RDPS_WindV_IsbL-0970_RLatLon0.09_PT015H.grib2 2026-05-09 08:47 662K
20260509T06Z_MSC_RDPS_WindV_IsbL-0985_RLatLon0.09_PT015H.grib2 2026-05-09 08:47 798K
20260509T06Z_MSC_RDPS_WindV_IsbL-1000_RLatLon0.09_PT015H.grib2 2026-05-09 08:47 792K
20260509T06Z_MSC_RDPS_WindV_IsbL-1015_RLatLon0.09_PT015H.grib2 2026-05-09 08:47 833K